This demonstration page uses our WeatherBlox Daily Observations layout. Learn more.

Left ArrowRight Arrow

Hourly Observations for October 25, 2021

Temp ( °F °C ) Dew Point ( °F °C ) Humidity (%) Winds ( mph kmh ) Pressure ( in mb ) Visibility ( mi km ) Precip ( " mm )
12:15 am 00:15 Clear 59 15 55 13 88 88 S 6 9 30.03 1017 10 16 N/A
12:55 am 00:55 Clear 61 16 55 13 83 83 S 9 15 30.02 1016 10 16 N/A
1:15 am 01:15 Clear 59 15 55 13 88 88 SSW 7 11 30.01 1016 10 16 N/A
1:35 am 01:35 Clear 61 16 55 13 83 83 SSW 7 11 30.02 1016 10 16 N/A
3:15 am 03:15 Clear 59 15 55 13 88 88 S 12 19 30.00 1016 10 16 N/A
3:35 am 03:35 Clear 59 15 54 12 82 82 S 7 11 29.99 1016 10 16 N/A
4:15 am 04:15 Clear 59 15 55 13 88 88 S 9 15 29.98 1015 10 16 N/A
4:35 am 04:35 Clear 59 15 55 13 88 88 S 6 9 29.98 1015 10 16 N/A
4:55 am 04:55 Clear 59 15 55 13 88 88 S 8 13 29.98 1015 10 16 N/A
5:15 am 05:15 Clear 59 15 55 13 88 88 S 5 7 29.98 1015 10 16 N/A
5:35 am 05:35 Clear 59 15 55 13 88 88 S 5 7 29.98 1015 10 16 N/A
5:55 am 05:55 Clear 57 14 55 13 94 94 S 5 7 29.97 1015 10 16 N/A
6:15 am 06:15 Clear 55 13 55 13 100 100 N N/A 29.97 1015 10 16 N/A
6:35 am 06:35 Clear 57 14 55 13 94 94 N N/A 29.97 1015 10 16 N/A
6:55 am 06:55 Clear 57 14 55 13 94 94 S 3 6 29.97 1015 10 16 N/A
7:15 am 07:15 Clear 57 14 55 13 94 94 S 6 9 29.97 1015 10 16 N/A
8:35 am 08:35 Sunny 57 14 57 14 100 100 N N/A 29.97 1015 10 16 N/A
8:55 am 08:55 Sunny 59 15 57 14 94 94 S 6 9 29.97 1015 10 16 N/A
9:35 am 09:35 Sunny 61 16 59 15 94 94 S 8 13 29.95 1014 10 16 N/A
9:55 am 09:55 Sunny 63 17 59 15 88 88 S 9 15 29.95 1014 10 16 N/A
10:15 am 10:15 Partly Cloudy 64 18 61 16 88 88 SW 7 11 29.93 1014 10 16 N/A
10:35 am 10:35 Partly Cloudy 66 19 61 16 83 83 SSW 9 15 29.93 1014 10 16 N/A
10:55 am 10:55 Sunny 66 19 61 16 83 83 SSW 9 15 29.92 1013 10 16 N/A
11:15 am 11:15 Sunny 68 20 61 16 78 78 SSW 8 13 29.91 1013 10 16 N/A
11:35 am 11:35 Sunny 70 21 61 16 73 73 SSW 10 17 29.89 1012 10 16 N/A
11:55 am 11:55 Sunny 72 22 61 16 69 69 SW 9 15 29.89 1012 10 16 N/A
12:15 pm 12:15 Sunny 72 22 61 16 69 69 SSW 12 19 29.88 1012 10 16 N/A
12:35 pm 12:35 Sunny 73 23 61 16 65 65 S 10 17 29.87 1011 10 16 N/A
12:55 pm 12:55 Sunny 75 24 61 16 61 61 SSW 10 17 29.85 1011 10 16 N/A
1:15 pm 13:15 Sunny 73 23 61 16 65 65 SW 9 15 29.84 1010 10 16 N/A
1:35 pm 13:35 Sunny 77 25 61 16 57 57 SW 13 20 29.82 1010 10 16 N/A
1:55 pm 13:55 Sunny 77 25 59 15 54 54 SW 15 24 29.81 1010 10 16 N/A
2:15 pm 14:15 Sunny 79 26 61 16 54 54 SSW 13 20 29.78 1009 10 16 N/A
2:35 pm 14:35 Sunny 77 25 59 15 54 54 SSW 15 24 29.77 1008 10 16 N/A
2:55 pm 14:55 Sunny 77 25 61 16 57 57 S 10 17 29.76 1008 10 16 N/A
3:15 pm 15:15 Sunny 77 25 61 16 57 57 SSW 7 11 29.75 1008 10 16 N/A
3:35 pm 15:35 Sunny 77 25 59 15 54 54 SW 10 17 29.75 1008 10 16 N/A
3:55 pm 15:55 Sunny 77 25 59 15 54 54 SSW 14 22 29.74 1007 10 16 N/A
4:15 pm 16:15 Sunny 77 25 59 15 54 54 SSW 10 17 29.74 1007 10 16 N/A
4:35 pm 16:35 Mostly Cloudy 75 24 59 15 57 57 SSW 7 11 29.75 1007 10 16 N/A
4:55 pm 16:55 Mostly Cloudy 75 24 61 16 61 61 SW 3 6 29.74 1007 10 16 N/A
5:15 pm 17:15 Cloudy 73 23 61 16 65 65 N N/A 29.72 1006 10 16 N/A
5:35 pm 17:35 Cloudy 73 23 61 16 65 65 W 3 6 29.71 1006 10 16 N/A
5:55 pm 17:55 Cloudy with Rain 73 23 64 18 74 74 S 13 20 29.73 1007 10 16 N/A
6:15 pm 18:15 Cloudy 66 19 64 18 94 94 SSE 13 20 29.73 1007 10 16 N/A
6:35 pm 18:35 Cloudy with Rain 64 18 64 18 100 100 SSE 3 6 29.73 1007 7 11 N/A
6:55 pm 18:55 Cloudy with Nearby Thunderstorms 64 18 64 18 100 100 SSW 3 6 29.74 1007 7 11 N/A
7:15 pm 19:15 Cloudy with Strong Thunderstorms 64 18 64 18 100 100 WNW 5 7 29.76 1008 5 8 N/A
7:35 pm 19:35 Cloudy with Strong Thunderstorms 63 17 63 17 100 100 N N/A 29.75 1007 3 4 N/A
7:55 pm 19:55 Cloudy with Strong Thunderstorms 63 17 63 17 100 100 WNW 5 7 29.75 1007 4 6 N/A
8:15 pm 20:15 Cloudy with Heavy Rain 63 17 63 17 100 100 NNE 5 7 29.73 1007 4 6 N/A
8:35 pm 20:35 Cloudy with Rain 63 17 63 17 100 100 NE 5 7 29.73 1007 7 11 N/A
8:55 pm 20:55 Cloudy with Rain 63 17 63 17 100 100 NNW 5 7 29.76 1008 10 16 N/A
9:15 pm 21:15 Cloudy with Rain 63 17 63 17 100 100 ENE 12 19 29.71 1006 5 8 N/A
9:35 pm 21:35 Cloudy with Rain 61 16 61 16 100 100 ESE 3 6 29.74 1007 5 8 N/A
9:55 pm 21:55 Cloudy with Nearby Thunderstorms 61 16 61 16 100 100 SE 5 7 29.73 1007 7 11 N/A
10:15 pm 22:15 Cloudy with Rain 61 16 61 16 100 100 ENE 5 7 29.69 1005 7 11 N/A
10:35 pm 22:35 Cloudy with Light Rain 61 16 61 16 100 100 N N/A 29.72 1006 7 11 N/A
11:15 pm 23:15 Cloudy with Drizzle 61 16 61 16 100 100 E 5 7 29.69 1005 10 16 N/A

Powered by AerisWeather